Content
SEND FEEDBACK

Daily
Averages
Monthly
Summary
Greece

IOANNINA, GREECE


Home > Europe > Greece
Elevation: 1588 feet     Latitude: 39 40N     Longitude: 020 51E

WEATHER
 
SELECT A DAY
Number of Records: 283,299;   Date Range: 7/1/96 - 7/28/14
 
SHARE

PRINT THIS DATA

[ ← Previous Day ]
WEATHER ALMANAC - MARCH 6, 2013
[ Next Day → ]
[ °C ]   °F
Weather ElementAverageHighLow
Temperature56.8 °F59 °F (12:50 pm)51.8 °F (12:50 am)
Dewpoint47.4 °F50 °F (1:50 am)42.8 °F (8:50 pm)
Humidity70.3 %82 % (12:50 am)49 % (8:00 pm)
Barometer29.61 in30.29 in (2:00 am) (7:00 pm)
Wind Speed9.5 mph16.1 mph (12:50 pm)
Weather ElementAverage
Visibility6.4 mi
Wind DirectionSSE (146.8 °)

Weather ElementTotal
Precipitation---
Heating Degree Days9.6 (Base 65)
Growing Degree Days5.4 (Base 50)
Averaged from 50 records on March 6, 2013
WEATHER CONDITIONS BREAKOUT
WIND DIRECTION BREAKOUT
WEATHER BY HOUR - MARCH 6, 2013
[ °C ]   °F
Local TimeTemperatureDewpointHumidityBarometerVisibilityWind DirectionWind SpeedGust SpeedPrecipitationEventsConditions
12:50 AM51.8 °F46.4 °F82 %6.2 miSE (140°)4.6 mphMostly Cloudy
1:20 AM55.4 °F48.2 °F77 %30.27 in6.2 miSE (130°)8.1 mphMostly Cloudy
1:50 AM57.2 °F50.0 °F77 %30.27 in6.2 miSE (140°)8.1 mphMostly Cloudy
2:00 AM57.0 °F49.0 °F67 %30.29 in6.0 miSE (140°)8.1 mphPartly Cloudy
2:20 AM57.2 °F50.0 °F77 %30.27 in6.2 miSE (130°)10.4 mphMostly Cloudy
2:50 AM55.4 °F48.2 °F77 %30.27 in6.2 miSE (140°)9.2 mphOvercast
3:20 AM55.4 °F48.2 °F77 %30.27 in6.2 miSE (130°)9.2 mphOvercast
3:50 AM57.2 °F46.4 °F67 %30.24 in6.2 miSE (130°)9.2 mphOvercast
4:20 AM57.2 °F46.4 °F67 %30.24 in6.2 miSE (130°)9.2 mphOvercast
4:50 AM55.4 °F48.2 °F77 %30.21 in6.2 miSE (140°)6.9 mphOvercast
5:20 AM55.4 °F48.2 °F77 %30.21 inSE (130°)6.9 mphClear
5:50 AM55.4 °F48.2 °F77 %30.21 inESE (120°)5.8 mphClear
6:20 AM55.4 °F48.2 °F77 %30.21 inSSE (150°)5.8 mphClear
6:50 AM55.4 °F48.2 °F77 %30.21 inSSE (160°)5.8 mphClear
7:20 AM55.4 °F48.2 °F77 %30.21 inSE (140°)10.4 mphClear
7:50 AM55.4 °F46.4 °F72 %30.21 in6.2 miSE (140°)9.2 mphOvercast
8:00 AM55.0 °F47.0 °F66 %30.22 in12.0 miSE (140°)9.2 mphOvercast
8:20 AM55.4 °F46.4 °F72 %30.21 in6.2 miSE (140°)9.2 mphOvercast
8:50 AM55.4 °F48.2 °F77 %30.21 in6.2 miSE (140°)11.5 mphOvercast
9:20 AM55.4 °F48.2 °F77 %30.21 in6.2 miSE (140°)11.5 mphOvercast
9:50 AM55.4 °F48.2 °F77 %30.21 in6.2 miESE (120°)11.5 mphOvercast
10:50 AM57.2 °F48.2 °F72 %30.21 in6.2 miSE (140°)11.5 mphOvercast
11:20 AM57.2 °F48.2 °F72 %30.21 in6.2 miSE (140°)11.5 mphOvercast
11:50 AM57.2 °F48.2 °F72 %30.21 in6.2 miSE (140°)11.5 mphOvercast
12:20 PM57.2 °F48.2 °F72 %30.21 in6.2 miSE (130°)12.7 mphOvercast
12:50 PM59.0 °F46.4 °F63 %30.21 in6.2 miSSE (150°)16.1 mphOvercast
1:20 PM59.0 °F46.4 °F63 %30.21 in6.2 miSSE (150°)16.1 mphOvercast
1:50 PM59.0 °F46.4 °F63 %30.15 in6.2 miSSE (150°)15.0 mphOvercast
2:00 PM59.0 °F46.0 °F52 %30.18 in12.0 miSSE (150°)15.0 mphOvercast
2:20 PM59.0 °F46.4 °F63 %30.15 in6.2 miSE (140°)10.4 mphOvercast
2:50 PM59.0 °F46.4 °F63 %30.15 in6.2 miSSE (150°)10.4 mphOvercast
3:20 PM59.0 °F48.2 °F67 %30.09 in6.2 miSSE (150°)12.7 mphOvercast
3:50 PM59.0 °F48.2 °F67 %30.09 in6.2 miSSE (160°)11.5 mphOvercast
4:20 PM59.0 °F48.2 °F67 %30.09 in6.2 miSSE (150°)15.0 mphOvercast
4:50 PM59.0 °F48.2 °F67 %30.09 in6.2 miSSE (160°)12.7 mphOvercast
5:20 PM57.2 °F46.4 °F67 %30.06 in6.2 miSE (140°)10.4 mphOvercast
5:50 PM57.2 °F46.4 °F67 %30.06 in6.2 miSE (140°)5.8 mphOvercast
6:20 PM57.2 °F46.4 °F67 %30.04 in6.2 miSE (130°)5.8 mphOvercast
6:50 PM57.2 °F48.2 °F72 %30.04 in6.2 miSSE (150°)8.1 mphOvercast
7:20 PM57.2 °F48.2 °F72 %30.04 in6.2 miSE (140°)11.5 mphOvercast
7:50 PM57.2 °F44.6 °F63 %30.04 in6.2 miSE (130°)6.9 mphOvercast
8:00 PM58.0 °F44.0 °F49 %30.06 in6.0 miSE (130°)6.9 mphOvercast
8:20 PM59.0 °F44.6 °F59 %30.04 in6.2 miSE (140°)6.9 mphOvercast
8:50 PM59.0 °F42.8 °F55 %30.04 in6.2 miSSW (200°)4.6 mphOvercast
9:20 PM57.2 °F46.4 °F67 %30.04 in6.2 miSSW (210°)3.5 mphMostly Cloudy
9:50 PM55.4 °F48.2 °F77 %30.04 in6.2 miSouth (180°)8.1 mphMostly Cloudy
10:20 PM55.4 °F48.2 °F77 %30.04 in6.2 miSouth (180°)8.1 mphMostly Cloudy
10:50 PM55.4 °F48.2 °F77 %30.04 in6.2 miSouth (180°)9.2 mphMostly Cloudy
11:20 PM55.4 °F48.2 °F77 %30.04 in6.2 miSouth (180°)9.2 mphMostly Cloudy
11:50 PM55.4 °F48.2 °F77 %30.04 in6.2 miSouth (180°)6.9 mphMostly Cloudy
Hourly data recorded from LGIO, located miles away from Ioannina, Greece







STORIES FROM OUR PARTNERS